Weather History for Joplin, MO

Change the Weather History Date:

Tuesday, March 5, 2013

  Actual Average Record
Temperature  
Mean Temperature 36 °F 46 °F  
Max Temperature 43 °F 56 °F 81 °F (1961)
Min Temperature 28 °F 35 °F 6 °F (1960)
Degree Days  
Heating Degree Days 29 20  
Month to date heating degree days 133 102  
Since 1 July heating degree days 3249 3356  
Cooling Degree Days 0 0  
Month to date cooling degree days 0 0  
Year to date cooling degree days 1 1  
Moisture  
Dew Point 25 °F    
Average Humidity 68    
Maximum Humidity 92    
Minimum Humidity 43    
Precipitation  
Precipitation 0.06 in 0.11 in 0.81 in (1961)
Month to date precipitation 0.06 0.51  
Year to date precipitation 5.21 4.86  
Snow  
Snow 0.00 in - - ()
Month to date snowfall T  
Snow Depth 0.00 in    
Sea Level Pressure  
Sea Level Pressure 30.20 in    
Wind  
Wind Speed 17 mph (NW)    
Max Wind Speed 28 mph    
Max Gust Speed 34 mph    
Visibility 9 miles    
Events Rain    
T = Trace of Precipitation, MM = Missing Value Source: NWS Daily Summary

Daily Weather History Graph

Daily Weather History Graph

Search for Another Location

Airport:

Trip Planner

Search our weather history database for the weather conditions in past years. The results will help you decide how hot, cold, wet, or windy it might be!

Date:

Astronomy

Mar. 05, 2013 Rise Set
Actual Time 6:43 AM CST 6:16 PM CST
Civil Twilight 6:17 AM CST 6:42 PM CST
Nautical Twilight 5:46 AM CST 7:12 PM CST
Astronomical Twilight 5:16 AM CST 7:42 PM CST
Moon 1:50 AM CST (3/5) 12:02 PM CST (3/5)
Length of Visible Light 12h 25m
Length of Day
11h 33m
Last Quarter, 40% of the Moon is Illuminated
Mar 5
Last Quarter
Mar 11
New
Mar 19
First Quarter
Mar 27
Full
Apr 2
Last Quarter

Hourly Weather History & Observations

Time (CST) Temp. Windchill Dew Point Humidity Pressure Visibility Wind Dir Wind Speed Gust Speed Precip Events Conditions
1:53 AM 39.0 °F 31.0 °F 33.1 °F 79% 29.99 in 7.0 mi NNW 13.8 mph 20.7 mph 0.00 in Rain Light Rain
2:53 AM 35.1 °F 24.5 °F 33.1 °F 92% 30.04 in 4.0 mi NNW 18.4 mph 24.2 mph 0.03 in Rain Rain
3:28 AM 35.6 °F 29.2 °F 33.8 °F 93% 30.05 in 5.0 mi WNW 8.1 mph - 0.03 in Rain Light Rain
3:50 AM 35.6 °F 27.5 °F 33.8 °F 93% 30.06 in 6.0 mi NW 11.5 mph - 0.03 in Rain Light Rain
3:53 AM 36.0 °F 27.5 °F 34.0 °F 93% 30.06 in 6.0 mi NW 12.7 mph - 0.03 in Rain Light Rain
4:53 AM 36.0 °F 26.7 °F 33.1 °F 89% 30.07 in 8.0 mi NW 15.0 mph - 0.00 in Rain Light Rain
5:17 AM 35.6 °F 25.5 °F 33.8 °F 93% 30.10 in 10.0 mi NW 17.3 mph - 0.00 in   Overcast
5:53 AM 36.0 °F 24.7 °F 30.0 °F 79% 30.12 in 10.0 mi NNW 21.9 mph 34.5 mph 0.00 in   Overcast
6:24 AM 35.6 °F 28.0 °F 28.4 °F 75% 30.11 in 10.0 mi NW 10.4 mph - N/A   Overcast
6:53 AM 34.0 °F 25.5 °F 27.0 °F 75% 30.13 in 10.0 mi NW 11.5 mph - N/A   Scattered Clouds
7:53 AM 32.0 °F 19.8 °F 21.9 °F 66% 30.17 in 10.0 mi WNW 20.7 mph 27.6 mph N/A   Partly Cloudy
8:53 AM 33.1 °F 20.6 °F 19.0 °F 56% 30.20 in 10.0 mi NW 23.0 mph 31.1 mph N/A   Clear
9:53 AM 34.0 °F 23.8 °F 19.0 °F 54% 30.23 in 10.0 mi NW 16.1 mph 28.8 mph N/A   Partly Cloudy
10:53 AM 36.0 °F 25.6 °F 19.0 °F 50% 30.25 in 10.0 mi NW 18.4 mph 27.6 mph N/A   Partly Cloudy
11:53 AM 37.9 °F 28.9 °F 19.9 °F 48% 30.25 in 10.0 mi WNW 16.1 mph 26.5 mph N/A   Scattered Clouds
12:53 PM 39.9 °F 30.2 °F 21.0 °F 47% 30.25 in 10.0 mi NW 20.7 mph 31.1 mph N/A   Clear
1:53 PM 42.1 °F 32.8 °F 21.9 °F 45% 30.23 in 10.0 mi WNW 21.9 mph - N/A   Scattered Clouds
2:53 PM 43.0 °F 33.3 °F 23.0 °F 45% 30.23 in 10.0 mi West 25.3 mph 32.2 mph N/A   Partly Cloudy
3:53 PM 43.0 °F 34.0 °F 24.1 °F 47% 30.24 in 10.0 mi WNW 21.9 mph 31.1 mph N/A   Partly Cloudy
4:53 PM 42.1 °F 33.6 °F 23.0 °F 47% 30.25 in 10.0 mi NW 18.4 mph 28.8 mph N/A   Scattered Clouds
5:53 PM 39.0 °F 29.9 °F 23.0 °F 53% 30.27 in 10.0 mi NW 17.3 mph - N/A   Scattered Clouds
6:53 PM 35.1 °F 24.8 °F 21.9 °F 59% 30.29 in 10.0 mi NW 17.3 mph - N/A   Clear
7:53 PM 34.0 °F 25.0 °F 21.9 °F 61% 30.32 in 10.0 mi NNW 12.7 mph - N/A   Clear
8:53 PM 30.9 °F 22.8 °F 21.0 °F 67% 30.34 in 10.0 mi NW 9.2 mph - N/A   Clear
9:53 PM 30.9 °F 22.8 °F 21.0 °F 67% 30.37 in 10.0 mi NW 9.2 mph - N/A   Clear
10:53 PM 28.9 °F 20.4 °F 19.9 °F 69% 30.37 in 10.0 mi NNW 9.2 mph - N/A   Clear
11:53 PM 28.9 °F 19.8 °F 19.0 °F 67% 30.36 in 10.0 mi NW 10.4 mph - N/A   Clear